This demonstration page uses our WeatherBlox Daily Observations layout. Learn more.

Left ArrowRight Arrow

38.80484, -77.04692

Hourly Observations for August 25, 2021

Temp ( °F °C ) Dew Point ( °F °C ) Humidity (%) Winds ( mph kmh ) Pressure ( in mb ) Visibility ( mi km ) Precip ( " mm )
12:52 am 00:52 Mostly Clear 78 25.6 73 22.8 85 85 SW 6 9 30.06 1018 10 16 N/A
1:52 am 01:52 Mostly Clear 77 25 75 23.9 94 94 WSW 5 7 30.07 1018 10 16 N/A
2:52 am 02:52 Partly Cloudy 77 25 72 22.2 85 85 N N/A 30.07 1018 10 16 N/A
3:52 am 03:52 Partly Cloudy 75 23.9 73 22.8 94 94 N N/A 30.08 1019 10 16 N/A
4:52 am 04:52 Partly Cloudy 76 24.4 75 23.9 97 97 N N/A 30.09 1019 10 16 N/A
5:52 am 05:52 Mostly Clear 75 23.9 74 23.3 96 96 N N/A 30.09 1019 10 16 N/A
6:52 am 06:52 Mostly Sunny 76 24.4 73 22.8 91 91 N N/A 30.10 1019 10 16 N/A
7:52 am 07:52 Mostly Sunny 78 25.6 70 21.1 76 76 N N/A 30.11 1020 10 16 N/A
8:52 am 08:52 Mostly Sunny 82 27.8 72 22.2 72 72 N N/A 30.12 1020 10 16 N/A
9:52 am 09:52 Mostly Sunny 85 29.4 73 22.8 68 68 S 6 9 30.13 1020 10 16 N/A
10:52 am 10:52 Mostly Sunny 87 30.6 72 22.2 61 61 SSE 5 7 30.14 1021 10 16 N/A
11:52 am 11:52 Mostly Sunny 89 31.7 68 20 50 50 S 10 17 30.13 1020 10 16 N/A
12:52 pm 12:52 Partly Cloudy 91 32.8 71 21.7 52 52 S 7 11 30.11 1020 10 16 N/A
1:52 pm 13:52 Partly Cloudy 92 33.3 72 22.2 52 52 S 8 13 30.11 1020 10 16 N/A
2:52 pm 14:52 Mostly Sunny 92 33.3 73 22.8 54 54 S 8 13 30.09 1019 10 16 N/A
3:52 pm 15:52 Partly Cloudy 93 33.9 71 21.7 49 49 S 9 15 30.07 1018 10 16 N/A
4:52 pm 16:52 Sunny 92 33.3 72 22.2 52 52 S 8 13 30.06 1018 10 16 N/A
5:52 pm 17:52 Partly Cloudy 91 32.8 72 22.2 54 54 S 7 11 30.06 1018 10 16 N/A
6:52 pm 18:52 Mostly Cloudy 89 31.7 72 22.2 57 57 S 8 13 30.07 1018 10 16 N/A
7:52 pm 19:52 Mostly Cloudy 87 30.6 72 22.2 61 61 S 9 15 30.09 1019 10 16 N/A
8:19 pm 20:19 Mostly Cloudy 86 30 71 21.7 61 61 WNW 6 9 30.11 1020 10 16 N/A
8:52 pm 20:52 Cloudy with Light Rain 78 25.6 67 19.4 69 69 WNW 7 11 30.12 1020 8 13 0.01 0.25
9:52 pm 21:52 Mostly Cloudy 78 25.6 72 22.2 82 82 S 8 13 30.11 1020 10 16 0.00 0.00
10:52 pm 22:52 Mostly Cloudy 80 26.7 70 21.1 71 71 S 6 9 30.11 1020 10 16 N/A
11:52 pm 23:52 Cloudy 77 25 71 21.7 82 82 VRB 3 6 30.11 1020 10 16 N/A

Powered by AerisWeather